Time,TemperatureF,DewpointF,PressureIn,WindDirection,WindDirectionDegrees,WindSpeedMPH,WindSpeedGustMPH,Humidity,HourlyPrecipIn,Conditions,Clouds,dailyrainin,SoftwareType,DateUTC
2013-04-07 00:00:00,81.3,71.8,29.99,South,180,4.6,4.6,73,0.00,,---,0.00,VWS V13.01,2013-04-07 04:00:00,
2013-04-07 00:02:00,81.1,71.6,30.00,SE,135,0.0,0.0,73,0.00,,---,0.00,VWS V13.01,2013-04-07 04:02:00,
2013-04-07 00:07:00,81.1,71.6,29.99,South,180,4.0,4.0,73,0.00,,---,0.00,VWS V13.01,2013-04-07 04:07:00,
2013-04-07 00:12:00,81.1,71.6,30.00,SE,135,0.0,0.0,73,0.00,,---,0.00,VWS V13.01,2013-04-07 04:12:00,
2013-04-07 00:17:00,81.1,71.6,30.00,SE,135,0.0,0.0,73,0.00,,---,0.00,VWS V13.01,2013-04-07 04:17:00,
2013-04-07 00:22:00,81.1,71.6,30.00,SE,135,0.0,0.0,73,0.00,,---,0.00,VWS V13.01,2013-04-07 04:22:00,
2013-04-07 00:27:00,80.9,71.4,30.00,ESE,112,1.3,1.3,73,0.00,,---,0.00,VWS V13.01,2013-04-07 04:27:00,
2013-04-07 00:32:00,80.9,71.4,30.00,SE,135,1.7,1.7,73,0.00,,---,0.00,VWS V13.01,2013-04-07 04:32:00,
2013-04-07 00:37:00,80.9,71.4,29.99,ENE,68,4.4,4.4,73,0.00,,---,0.00,VWS V13.01,2013-04-07 04:37:00,
2013-04-07 00:42:00,80.7,71.7,30.00,SE,135,1.3,1.3,74,0.00,,---,0.00,VWS V13.01,2013-04-07 04:42:00,
2013-04-07 00:47:00,80.7,71.7,29.99,ESE,112,4.9,4.9,74,0.00,,---,0.00,VWS V13.01,2013-04-07 04:47:00,
2013-04-07 00:52:00,80.6,71.6,29.99,South,180,2.0,2.0,74,0.00,,---,0.00,VWS V13.01,2013-04-07 04:52:00,
2013-04-07 00:57:00,80.4,71.4,29.99,SE,135,3.5,3.5,74,0.00,,---,0.00,VWS V13.01,2013-04-07 04:57:00,
2013-04-07 01:02:00,80.4,71.4,29.98,SE,135,1.5,1.5,74,0.00,,---,0.00,VWS V13.01,2013-04-07 05:02:00,
2013-04-07 01:07:00,80.4,71.4,29.98,SE,135,0.8,0.8,74,0.00,,---,0.00,VWS V13.01,2013-04-07 05:07:00,
2013-04-07 01:12:00,80.4,71.4,29.98,SE,135,3.3,3.3,74,0.00,,---,0.00,VWS V13.01,2013-04-07 05:12:00,
2013-04-07 01:17:00,80.4,71.4,29.98,SSE,158,0.0,3.3,74,0.00,,---,0.00,VWS V13.01,2013-04-07 05:17:00,
2013-04-07 01:22:00,80.4,71.4,29.98,ESE,112,1.1,1.1,74,0.00,,---,0.00,VWS V13.01,2013-04-07 05:22:00,
2013-04-07 01:27:00,80.2,71.2,29.97,ESE,112,1.5,1.5,74,0.00,,---,0.00,VWS V13.01,2013-04-07 05:27:00,
2013-04-07 01:32:00,80.2,71.2,29.97,ESE,112,0.0,0.0,74,0.00,,---,0.00,VWS V13.01,2013-04-07 05:32:00,
2013-04-07 01:37:00,80.2,71.2,29.96,SE,135,0.0,0.0,74,0.00,,---,0.00,VWS V13.01,2013-04-07 05:37:00,
2013-04-07 01:42:00,80.2,71.2,29.96,SE,135,1.3,1.3,74,0.00,,---,0.00,VWS V13.01,2013-04-07 05:42:00,
2013-04-07 01:47:00,80.2,71.6,29.96,ESE,112,0.0,0.0,75,0.00,,---,0.00,VWS V13.01,2013-04-07 05:47:00,
2013-04-07 01:52:00,80.2,71.6,29.96,SE,135,0.0,0.0,75,0.00,,---,0.00,VWS V13.01,2013-04-07 05:52:00,
2013-04-07 01:57:00,80.0,71.4,29.96,SE,135,0.0,0.0,75,0.00,,---,0.00,VWS V13.01,2013-04-07 05:57:00,
2013-04-07 02:02:00,80.0,71.4,29.96,ESE,112,1.5,1.5,75,0.00,,---,0.00,VWS V13.01,2013-04-07 06:02:00,
2013-04-07 02:07:00,79.8,71.2,29.96,East,90,0.0,0.0,75,0.00,,---,0.00,VWS V13.01,2013-04-07 06:07:00,
2013-04-07 02:12:00,79.8,71.2,29.96,ESE,112,0.0,0.0,75,0.00,,---,0.00,VWS V13.01,2013-04-07 06:12:00,
2013-04-07 02:17:00,79.8,71.2,29.96,SSE,158,0.0,0.0,75,0.00,,---,0.00,VWS V13.01,2013-04-07 06:17:00,
2013-04-07 02:22:00,79.8,71.2,29.95,SE,135,0.0,0.0,75,0.00,,---,0.00,VWS V13.01,2013-04-07 06:22:00,
2013-04-07 02:27:00,79.8,71.2,29.95,South,180,3.1,3.1,75,0.00,,---,0.00,VWS V13.01,2013-04-07 06:27:00,
2013-04-07 02:32:00,79.8,71.2,29.95,South,180,3.3,3.3,75,0.00,,---,0.00,VWS V13.01,2013-04-07 06:32:00,
2013-04-07 02:37:00,79.7,71.5,29.95,SSE,158,1.5,1.5,76,0.00,,---,0.00,VWS V13.01,2013-04-07 06:37:00,
2013-04-07 02:42:00,79.5,71.3,29.95,SSE,158,0.0,0.0,76,0.00,,---,0.00,VWS V13.01,2013-04-07 06:42:00,
2013-04-07 02:47:00,79.5,71.3,29.94,SSE,158,1.1,1.1,76,0.00,,---,0.00,VWS V13.01,2013-04-07 06:47:00,
2013-04-07 02:52:00,79.5,71.3,29.94,SE,135,3.5,3.5,76,0.00,,---,0.00,VWS V13.01,2013-04-07 06:52:00,
2013-04-07 02:57:00,79.3,71.1,29.94,SSE,158,0.0,0.0,76,0.00,,---,0.00,VWS V13.01,2013-04-07 06:57:00,
2013-04-07 03:02:00,79.3,71.1,29.94,SE,135,0.0,0.0,76,0.00,,---,0.00,VWS V13.01,2013-04-07 07:02:00,
2013-04-07 03:07:00,79.3,71.1,29.94,SSE,158,2.2,2.2,76,0.00,,---,0.00,VWS V13.01,2013-04-07 07:07:00,
2013-04-07 03:12:00,79.3,71.1,29.94,ESE,112,0.0,0.0,76,0.00,,---,0.00,VWS V13.01,2013-04-07 07:12:00,
2013-04-07 03:17:00,79.3,71.1,29.94,SE,135,0.0,0.0,76,0.00,,---,0.00,VWS V13.01,2013-04-07 07:17:00,
2013-04-07 03:22:00,79.3,71.1,29.93,East,90,0.0,0.0,76,0.00,,---,0.00,VWS V13.01,2013-04-07 07:22:00,
2013-04-07 03:27:00,79.3,71.1,29.93,SSE,158,0.0,0.0,76,0.00,,---,0.00,VWS V13.01,2013-04-07 07:27:00,
2013-04-07 03:32:00,79.3,71.1,29.93,South,180,1.3,1.3,76,0.00,,---,0.00,VWS V13.01,2013-04-07 07:32:00,
2013-04-07 03:37:00,79.3,71.1,29.93,SE,135,0.0,0.0,76,0.00,,---,0.00,VWS V13.01,2013-04-07 07:37:00,
2013-04-07 03:42:00,79.1,70.9,29.93,SSE,158,0.0,0.0,76,0.00,,---,0.00,VWS V13.01,2013-04-07 07:42:00,
2013-04-07 03:47:00,79.1,70.9,29.93,SSE,158,0.0,0.0,76,0.00,,---,0.00,VWS V13.01,2013-04-07 07:47:00,
2013-04-07 03:52:00,79.1,70.9,29.93,SSE,158,0.0,0.0,76,0.00,,---,0.00,VWS V13.01,2013-04-07 07:52:00,
2013-04-07 03:57:00,79.1,70.9,29.93,SSE,158,0.0,0.0,76,0.00,,---,0.00,VWS V13.01,2013-04-07 07:57:00,
2013-04-07 04:02:00,78.9,70.7,29.93,South,180,0.0,0.0,76,0.00,,---,0.00,VWS V13.01,2013-04-07 08:02:00,
2013-04-07 04:07:00,78.9,70.7,29.93,SE,135,0.0,0.0,76,0.00,,---,0.00,VWS V13.01,2013-04-07 08:07:00,
2013-04-07 04:12:00,78.9,70.7,29.92,South,180,0.0,0.0,76,0.00,,---,0.00,VWS V13.01,2013-04-07 08:12:00,
2013-04-07 04:17:00,78.9,70.7,29.93,SE,135,0.0,0.0,76,0.00,,---,0.00,VWS V13.01,2013-04-07 08:17:00,
2013-04-07 04:22:00,78.9,70.7,29.93,ESE,112,0.0,0.0,76,0.00,,---,0.00,VWS V13.01,2013-04-07 08:22:00,
2013-04-07 04:27:00,78.9,70.7,29.93,ESE,112,0.0,0.0,76,0.00,,---,0.00,VWS V13.01,2013-04-07 08:27:00,
2013-04-07 04:32:00,78.9,70.7,29.93,ESE,112,0.0,0.0,76,0.00,,---,0.00,VWS V13.01,2013-04-07 08:32:00,
2013-04-07 04:37:00,78.9,70.7,29.93,South,180,0.0,0.0,76,0.00,,---,0.00,VWS V13.01,2013-04-07 08:37:00,
2013-04-07 04:42:00,78.9,70.7,29.93,SE,135,0.0,0.0,76,0.00,,---,0.00,VWS V13.01,2013-04-07 08:42:00,
2013-04-07 04:47:00,78.9,70.7,29.94,ESE,112,0.0,0.0,76,0.00,,---,0.00,VWS V13.01,2013-04-07 08:47:00,
2013-04-07 04:52:00,78.9,70.7,29.94,East,90,0.0,0.0,76,0.00,,---,0.00,VWS V13.01,2013-04-07 08:52:00,
2013-04-07 04:57:00,78.9,70.7,29.94,SSE,158,0.0,0.0,76,0.00,,---,0.00,VWS V13.01,2013-04-07 08:57:00,
2013-04-07 05:02:00,78.9,70.7,29.94,SSE,158,0.0,0.0,76,0.00,,---,0.00,VWS V13.01,2013-04-07 09:02:00,
2013-04-07 05:07:00,79.1,70.9,29.94,SSE,158,0.0,0.0,76,0.00,,---,0.00,VWS V13.01,2013-04-07 09:07:00,
2013-04-07 05:12:00,79.1,70.9,29.94,NNE,22,0.0,0.0,76,0.00,,---,0.00,VWS V13.01,2013-04-07 09:12:00,
2013-04-07 05:17:00,78.9,71.1,29.95,North,0,0.0,0.0,77,0.00,,---,0.00,VWS V13.01,2013-04-07 09:17:00,
2013-04-07 05:22:00,78.9,71.1,29.95,East,90,0.0,0.0,77,0.00,,---,0.00,VWS V13.01,2013-04-07 09:22:00,
2013-04-07 05:27:00,78.9,71.1,29.95,NE,45,0.0,0.0,77,0.00,,---,0.00,VWS V13.01,2013-04-07 09:27:00,
2013-04-07 05:32:00,78.9,71.5,29.95,NNE,22,0.0,0.0,78,0.00,,---,0.00,VWS V13.01,2013-04-07 09:32:00,
2013-04-07 05:37:00,78.9,71.5,29.95,ENE,68,0.0,0.0,78,0.00,,---,0.00,VWS V13.01,2013-04-07 09:37:00,
2013-04-07 05:42:00,78.9,71.5,29.95,ESE,112,0.0,0.0,78,0.00,,---,0.00,VWS V13.01,2013-04-07 09:42:00,
2013-04-07 05:47:00,78.9,71.5,29.95,North,0,0.0,0.0,78,0.00,,---,0.00,VWS V13.01,2013-04-07 09:47:00,
2013-04-07 05:52:00,79.1,71.7,29.95,NNE,22,0.0,0.0,78,0.00,,---,0.00,VWS V13.01,2013-04-07 09:52:00,
2013-04-07 05:58:00,79.1,71.7,29.95,East,90,0.0,0.0,78,0.00,,---,0.00,VWS V13.01,2013-04-07 09:58:00,
2013-04-07 06:03:00,79.3,71.8,29.96,ESE,112,0.0,0.0,78,0.00,,---,0.00,VWS V13.01,2013-04-07 10:03:00,
2013-04-07 06:08:00,79.3,71.8,29.96,SE,135,0.0,0.0,78,0.00,,---,0.00,VWS V13.01,2013-04-07 10:08:00,
2013-04-07 06:13:00,79.3,71.8,29.96,SE,135,0.0,0.0,78,0.00,,---,0.00,VWS V13.01,2013-04-07 10:13:00,
2013-04-07 06:18:00,79.5,72.0,29.96,ENE,68,0.0,0.0,78,0.00,,---,0.00,VWS V13.01,2013-04-07 10:18:00,
2013-04-07 06:22:00,79.5,72.4,29.96,East,90,4.0,4.0,79,0.00,,---,0.00,VWS V13.01,2013-04-07 10:22:00,
2013-04-07 06:27:00,79.5,72.4,29.96,East,90,1.5,1.5,79,0.00,,---,0.00,VWS V13.01,2013-04-07 10:27:00,
2013-04-07 06:32:00,79.5,72.8,29.96,SSE,158,3.5,3.5,80,0.00,,---,0.00,VWS V13.01,2013-04-07 10:32:00,
2013-04-07 06:37:00,79.3,72.6,29.97,SE,135,0.0,0.0,80,0.00,,---,0.00,VWS V13.01,2013-04-07 10:37:00,
2013-04-07 06:42:00,78.9,72.6,29.97,SSE,158,2.2,2.2,81,0.00,,---,0.00,VWS V13.01,2013-04-07 10:42:00,
2013-04-07 06:47:00,78.6,72.3,29.98,SSE,158,4.9,4.9,81,0.00,,---,0.00,VWS V13.01,2013-04-07 10:47:00,
2013-04-07 06:52:00,78.6,72.3,29.98,SSE,158,2.0,2.0,81,0.00,,---,0.00,VWS V13.01,2013-04-07 10:52:00,
2013-04-07 06:58:00,78.6,72.7,29.98,ESE,112,0.0,0.0,82,0.00,,---,0.00,VWS V13.01,2013-04-07 10:58:00,
2013-04-07 07:02:00,78.6,72.7,29.98,SSE,158,0.0,0.0,82,0.00,,---,0.00,VWS V13.01,2013-04-07 11:02:00,
2013-04-07 07:07:00,78.6,72.7,29.98,SE,135,0.0,0.0,82,0.00,,---,0.00,VWS V13.01,2013-04-07 11:07:00,
2013-04-07 07:12:00,78.8,72.8,29.98,SSE,158,0.0,0.0,82,0.00,,---,0.00,VWS V13.01,2013-04-07 11:12:00,
2013-04-07 07:18:00,78.9,72.9,29.99,SSE,158,3.5,3.5,82,0.00,,---,0.00,VWS V13.01,2013-04-07 11:18:00,
2013-04-07 07:23:00,78.9,72.9,29.99,East,90,0.0,0.0,82,0.00,,---,0.00,VWS V13.01,2013-04-07 11:23:00,
2013-04-07 07:28:00,78.9,72.9,29.99,South,180,0.0,0.0,82,0.02,,---,0.02,VWS V13.01,2013-04-07 11:28:00,
2013-04-07 07:33:00,79.1,73.1,29.98,ESE,112,0.0,0.0,82,0.02,,---,0.02,VWS V13.01,2013-04-07 11:33:00,
2013-04-07 07:38:00,79.3,73.3,29.99,SE,135,0.0,0.0,82,0.02,,---,0.02,VWS V13.01,2013-04-07 11:38:00,
2013-04-07 07:43:00,79.5,73.5,29.99,SE,135,0.0,0.0,82,0.02,,---,0.02,VWS V13.01,2013-04-07 11:43:00,
2013-04-07 07:48:00,79.5,73.5,29.99,SE,135,0.0,0.0,82,0.02,,---,0.02,VWS V13.01,2013-04-07 11:48:00,
2013-04-07 07:53:00,79.7,73.7,30.00,SSE,158,0.0,0.0,82,0.02,,---,0.02,VWS V13.01,2013-04-07 11:53:00,
2013-04-07 07:58:00,79.8,73.8,30.00,SSE,158,0.8,0.8,82,0.02,,---,0.02,VWS V13.01,2013-04-07 11:58:00,
2013-04-07 08:03:00,80.2,74.2,30.00,SE,135,0.0,0.0,82,0.02,,---,0.02,VWS V13.01,2013-04-07 12:03:00,
2013-04-07 08:08:00,80.4,74.4,30.00,South,180,0.0,0.0,82,0.02,,---,0.02,VWS V13.01,2013-04-07 12:08:00,
2013-04-07 08:13:00,80.7,74.3,30.00,SSE,158,0.0,0.0,81,0.02,,---,0.02,VWS V13.01,2013-04-07 12:13:00,
2013-04-07 08:18:00,80.7,74.3,30.01,SSE,158,2.4,2.4,81,0.02,,---,0.02,VWS V13.01,2013-04-07 12:18:00,
2013-04-07 08:23:00,81.1,74.3,30.01,ESE,112,0.0,0.0,80,0.00,,---,0.02,VWS V13.01,2013-04-07 12:23:00,
2013-04-07 08:28:00,81.3,74.9,30.01,NE,45,1.1,1.1,81,0.00,,---,0.02,VWS V13.01,2013-04-07 12:28:00,
2013-04-07 08:33:00,81.5,74.7,30.01,ESE,112,0.0,0.0,80,0.00,,---,0.02,VWS V13.01,2013-04-07 12:33:00,
2013-04-07 08:38:00,81.5,74.7,30.01,SSE,158,4.0,4.0,80,0.00,,---,0.02,VWS V13.01,2013-04-07 12:38:00,
2013-04-07 08:43:00,81.6,74.5,30.01,ENE,68,4.6,4.6,79,0.00,,---,0.02,VWS V13.01,2013-04-07 12:43:00,
2013-04-07 08:48:00,81.6,74.5,30.01,South,180,3.8,3.8,79,0.00,,---,0.02,VWS V13.01,2013-04-07 12:48:00,
2013-04-07 08:53:00,82.0,74.8,30.01,SE,135,2.2,2.2,79,0.00,,---,0.02,VWS V13.01,2013-04-07 12:53:00,
2013-04-07 08:58:00,82.4,74.9,30.01,SSE,158,2.0,2.0,78,0.00,,---,0.02,VWS V13.01,2013-04-07 12:58:00,
2013-04-07 09:03:00,82.9,74.9,30.01,ESE,112,0.0,0.0,77,0.00,,---,0.02,VWS V13.01,2013-04-07 13:03:00,
2013-04-07 09:08:00,83.1,74.8,30.02,ENE,68,7.3,7.3,76,0.00,,---,0.02,VWS V13.01,2013-04-07 13:08:00,
2013-04-07 09:13:00,83.4,75.1,30.02,SE,135,1.7,1.7,76,0.00,,---,0.02,VWS V13.01,2013-04-07 13:13:00,
2013-04-07 09:18:00,83.8,75.4,30.02,ENE,68,2.2,2.2,76,0.00,,---,0.02,VWS V13.01,2013-04-07 13:18:00,
2013-04-07 09:23:00,83.8,75.0,30.01,ENE,68,1.7,1.7,75,0.00,,---,0.02,VWS V13.01,2013-04-07 13:23:00,
2013-04-07 09:28:00,83.6,74.4,30.02,East,90,6.7,6.7,74,0.00,,---,0.02,VWS V13.01,2013-04-07 13:28:00,
2013-04-07 09:33:00,83.6,74.0,30.02,SSE,158,0.0,0.0,73,0.00,,---,0.02,VWS V13.01,2013-04-07 13:33:00,
2013-04-07 09:38:00,83.4,73.4,30.02,ESE,112,2.0,2.0,72,0.00,,---,0.02,VWS V13.01,2013-04-07 13:38:00,
2013-04-07 09:43:00,83.8,73.8,30.02,SE,135,1.3,1.3,72,0.00,,---,0.02,VWS V13.01,2013-04-07 13:43:00,
2013-04-07 09:48:00,83.8,73.8,30.02,East,90,2.0,2.0,72,0.00,,---,0.02,VWS V13.01,2013-04-07 13:48:00,
2013-04-07 09:53:00,84.0,74.0,30.02,East,90,9.3,9.3,72,0.00,,---,0.02,VWS V13.01,2013-04-07 13:53:00,
2013-04-07 09:58:00,84.0,74.0,30.02,ENE,68,8.0,8.0,72,0.00,,---,0.02,VWS V13.01,2013-04-07 13:58:00,
2013-04-07 10:03:00,84.2,74.2,30.02,ESE,112,0.0,0.0,72,0.00,,---,0.02,VWS V13.01,2013-04-07 14:03:00,
2013-04-07 10:08:00,84.0,74.0,30.02,ENE,68,0.0,0.0,72,0.00,,---,0.02,VWS V13.01,2013-04-07 14:08:00,
2013-04-07 10:13:00,84.2,75.0,30.02,ENE,68,4.0,4.0,74,0.00,,---,0.02,VWS V13.01,2013-04-07 14:13:00,
2013-04-07 10:18:00,84.2,75.4,30.02,ENE,68,3.3,3.3,75,0.00,,---,0.02,VWS V13.01,2013-04-07 14:18:00,
2013-04-07 10:23:00,84.0,75.2,30.02,ENE,68,0.0,0.0,75,0.00,,---,0.02,VWS V13.01,2013-04-07 14:23:00,
2013-04-07 10:28:00,84.0,74.8,30.02,NE,45,3.5,3.5,74,0.00,,---,0.02,VWS V13.01,2013-04-07 14:28:00,
2013-04-07 10:33:00,83.8,74.6,30.02,ESE,112,6.2,6.2,74,0.00,,---,0.02,VWS V13.01,2013-04-07 14:33:00,
2013-04-07 10:38:00,83.4,75.1,30.02,NE,45,9.1,9.1,76,0.00,,---,0.02,VWS V13.01,2013-04-07 14:38:00,
2013-04-07 10:43:00,84.0,75.2,30.01,ENE,68,4.2,4.2,75,0.00,,---,0.02,VWS V13.01,2013-04-07 14:43:00,
2013-04-07 10:48:00,84.3,75.1,30.02,NNE,22,5.8,5.8,74,0.00,,---,0.02,VWS V13.01,2013-04-07 14:48:00,
2013-04-07 10:54:00,84.5,75.3,30.01,ENE,68,3.8,6.4,74,0.00,,---,0.02,VWS V13.01,2013-04-07 14:54:00,
2013-04-07 10:59:00,84.7,75.1,30.01,ESE,112,4.4,7.3,73,0.00,,---,0.02,VWS V13.01,2013-04-07 14:59:00,
2013-04-07 11:04:00,84.9,75.3,30.01,ESE,112,9.6,11.1,73,0.00,,---,0.02,VWS V13.01,2013-04-07 15:04:00,
2013-04-07 11:09:00,85.1,75.1,30.01,ENE,68,8.2,8.2,72,0.00,,---,0.02,VWS V13.01,2013-04-07 15:09:00,
2013-04-07 11:14:00,85.2,75.2,30.00,ENE,68,6.2,6.2,72,0.00,,---,0.02,VWS V13.01,2013-04-07 15:14:00,
2013-04-07 11:19:00,85.2,74.7,30.01,ENE,68,13.4,13.4,71,0.00,,---,0.02,VWS V13.01,2013-04-07 15:19:00,
2013-04-07 11:24:00,85.4,74.9,30.00,East,90,10.0,10.0,71,0.00,,---,0.02,VWS V13.01,2013-04-07 15:24:00,
2013-04-07 11:29:00,85.2,74.7,30.01,NE,45,2.4,8.0,71,0.00,,---,0.02,VWS V13.01,2013-04-07 15:29:00,
2013-04-07 11:34:00,84.9,74.9,30.00,ENE,68,12.0,12.0,72,0.00,,---,0.02,VWS V13.01,2013-04-07 15:34:00,
2013-04-07 11:39:00,84.9,74.9,30.00,East,90,10.7,10.7,72,0.00,,---,0.02,VWS V13.01,2013-04-07 15:39:00,
2013-04-07 11:44:00,85.1,75.1,30.00,ENE,68,6.9,6.9,72,0.00,,---,0.02,VWS V13.01,2013-04-07 15:44:00,
2013-04-07 11:49:00,85.2,75.2,30.00,NE,45,8.5,8.5,72,0.00,,---,0.02,VWS V13.01,2013-04-07 15:49:00,
2013-04-07 11:55:00,85.1,75.1,29.99,East,90,8.0,8.0,72,0.00,,---,0.02,VWS V13.01,2013-04-07 15:55:00,
2013-04-07 12:00:00,84.5,74.5,29.99,ESE,112,3.5,4.9,72,0.00,,---,0.02,VWS V13.01,2013-04-07 16:00:00,
2013-04-07 12:05:00,84.5,74.9,29.99,ENE,68,2.2,2.2,73,0.00,,---,0.02,VWS V13.01,2013-04-07 16:05:00,
2013-04-07 12:10:00,84.7,76.3,29.99,ENE,68,8.5,8.5,76,0.00,,---,0.02,VWS V13.01,2013-04-07 16:10:00,
2013-04-07 12:15:00,84.9,76.5,29.98,East,90,10.2,10.2,76,0.00,,---,0.02,VWS V13.01,2013-04-07 16:15:00,
2013-04-07 12:20:00,85.2,76.4,29.98,SSE,158,4.9,4.9,75,0.00,,---,0.02,VWS V13.01,2013-04-07 16:20:00,
2013-04-07 12:25:00,85.2,76.0,29.98,East,90,5.1,5.1,74,0.00,,---,0.02,VWS V13.01,2013-04-07 16:25:00,
2013-04-07 12:30:00,85.2,75.6,29.98,ENE,68,2.4,2.4,73,0.00,,---,0.02,VWS V13.01,2013-04-07 16:30:00,
2013-04-07 12:35:00,85.2,75.6,29.98,ENE,68,2.0,2.0,73,0.00,,---,0.02,VWS V13.01,2013-04-07 16:35:00,
2013-04-07 12:40:00,85.8,75.7,29.97,East,90,1.3,1.3,72,0.00,,---,0.02,VWS V13.01,2013-04-07 16:40:00,
2013-04-07 12:45:00,86.1,75.6,29.97,NE,45,6.0,6.0,71,0.00,,---,0.02,VWS V13.01,2013-04-07 16:45:00,
2013-04-07 12:50:00,86.1,75.6,29.97,ENE,68,9.1,9.1,71,0.00,,---,0.02,VWS V13.01,2013-04-07 16:50:00,
2013-04-07 12:55:00,85.8,74.9,29.97,ENE,68,3.3,3.3,70,0.00,,---,0.02,VWS V13.01,2013-04-07 16:55:00,
2013-04-07 13:00:00,85.8,74.9,29.97,East,90,3.8,3.8,70,0.00,,---,0.02,VWS V13.01,2013-04-07 17:00:00,
2013-04-07 13:05:00,86.1,75.2,29.97,ENE,68,4.6,4.6,70,0.00,,---,0.02,VWS V13.01,2013-04-07 17:05:00,
2013-04-07 13:10:00,86.7,75.3,29.97,ENE,68,10.7,10.7,69,0.00,,---,0.02,VWS V13.01,2013-04-07 17:10:00,
2013-04-07 13:15:00,87.2,75.8,29.96,ENE,68,3.1,3.1,69,0.00,,---,0.02,VWS V13.01,2013-04-07 17:15:00,
2013-04-07 13:20:00,87.4,75.6,29.96,North,0,0.0,0.0,68,0.00,,---,0.02,VWS V13.01,2013-04-07 17:20:00,
2013-04-07 13:25:00,87.6,75.3,29.96,SSE,158,10.5,10.5,67,0.00,,---,0.02,VWS V13.01,2013-04-07 17:25:00,
2013-04-07 13:30:00,87.9,75.6,29.96,ENE,68,3.8,3.8,67,0.00,,---,0.02,VWS V13.01,2013-04-07 17:30:00,
2013-04-07 13:35:00,88.1,75.3,29.96,NE,45,7.8,7.8,66,0.00,,---,0.02,VWS V13.01,2013-04-07 17:35:00,
2013-04-07 13:40:00,88.5,74.8,29.95,East,90,16.5,16.5,64,0.00,,---,0.02,VWS V13.01,2013-04-07 17:40:00,
2013-04-07 13:45:00,88.5,75.2,29.95,SE,135,2.9,2.9,65,0.00,,---,0.02,VWS V13.01,2013-04-07 17:45:00,
2013-04-07 13:50:00,88.8,75.5,29.94,ENE,68,4.4,4.4,65,0.00,,---,0.02,VWS V13.01,2013-04-07 17:50:00,
2013-04-07 13:55:00,89.4,74.7,29.94,SW,225,5.3,5.3,62,0.00,,---,0.02,VWS V13.01,2013-04-07 17:55:00,
2013-04-07 14:00:00,89.9,71.6,29.94,SSE,158,6.2,6.2,55,0.00,,---,0.02,VWS V13.01,2013-04-07 18:00:00,
2013-04-07 14:05:00,91.0,71.5,29.94,SSE,158,10.9,10.9,53,0.00,,---,0.02,VWS V13.01,2013-04-07 18:05:00,
2013-04-07 14:10:00,91.5,70.2,29.94,South,180,6.0,6.0,50,0.00,,---,0.02,VWS V13.01,2013-04-07 18:10:00,
2013-04-07 14:15:00,92.6,71.3,29.94,South,180,0.0,0.0,50,0.00,,---,0.02,VWS V13.01,2013-04-07 18:15:00,
2013-04-07 14:20:00,93.3,71.3,29.94,SSE,158,9.1,9.1,49,0.00,,---,0.02,VWS V13.01,2013-04-07 18:20:00,
2013-04-07 14:25:00,93.5,70.9,29.93,South,180,4.4,4.4,48,0.00,,---,0.02,VWS V13.01,2013-04-07 18:25:00,
2013-04-07 14:30:00,93.3,71.3,29.93,East,90,6.0,6.0,49,0.00,,---,0.02,VWS V13.01,2013-04-07 18:30:00,
2013-04-07 14:36:00,92.8,75.3,29.93,SE,135,6.7,6.7,57,0.00,,---,0.02,VWS V13.01,2013-04-07 18:36:00,
2013-04-07 14:41:00,92.4,75.0,29.93,NE,45,2.4,2.4,57,0.00,,---,0.02,VWS V13.01,2013-04-07 18:41:00,
2013-04-07 14:46:00,92.4,76.0,29.94,SE,135,2.2,2.2,59,0.00,,---,0.02,VWS V13.01,2013-04-07 18:46:00,
2013-04-07 14:50:00,92.1,76.2,29.94,ESE,112,2.0,2.0,60,0.00,,---,0.02,VWS V13.01,2013-04-07 18:50:00,
2013-04-07 14:55:00,92.1,76.2,29.93,ENE,68,8.5,8.5,60,0.00,,---,0.02,VWS V13.01,2013-04-07 18:55:00,
2013-04-07 15:01:00,91.7,75.8,29.93,ENE,68,14.0,14.0,60,0.00,,---,0.02,VWS V13.01,2013-04-07 19:01:00,
2013-04-07 15:06:00,91.7,76.3,29.93,NE,45,1.7,1.7,61,0.00,,---,0.02,VWS V13.01,2013-04-07 19:06:00,
2013-04-07 15:11:00,91.7,76.3,29.93,ENE,68,8.7,8.7,61,0.00,,---,0.02,VWS V13.01,2013-04-07 19:11:00,
2013-04-07 15:16:00,91.5,76.7,29.93,ENE,68,0.8,0.8,62,0.00,,---,0.02,VWS V13.01,2013-04-07 19:16:00,
2013-04-07 15:21:00,91.2,76.4,29.93,SE,135,3.8,3.8,62,0.00,,---,0.02,VWS V13.01,2013-04-07 19:21:00,
2013-04-07 15:26:00,90.6,75.8,29.93,ENE,68,8.9,8.9,62,0.00,,---,0.02,VWS V13.01,2013-04-07 19:26:00,
2013-04-07 15:31:00,90.1,76.3,29.93,ENE,68,11.4,11.4,64,0.00,,---,0.02,VWS V13.01,2013-04-07 19:31:00,
2013-04-07 15:36:00,90.1,76.3,29.93,ENE,68,13.4,13.4,64,0.00,,---,0.02,VWS V13.01,2013-04-07 19:36:00,
2013-04-07 15:41:00,90.3,76.5,29.93,NE,45,16.3,16.3,64,0.00,,---,0.02,VWS V13.01,2013-04-07 19:41:00,
2013-04-07 15:46:00,90.5,76.2,29.93,ESE,112,6.4,6.4,63,0.00,,---,0.02,VWS V13.01,2013-04-07 19:46:00,
2013-04-07 15:51:00,91.0,76.2,29.92,NE,45,4.0,4.0,62,0.00,,---,0.02,VWS V13.01,2013-04-07 19:51:00,
2013-04-07 15:56:00,91.4,76.6,29.92,East,90,12.9,12.9,62,0.00,,---,0.02,VWS V13.01,2013-04-07 19:56:00,
2013-04-07 16:01:00,91.2,76.4,29.92,ENE,68,4.6,4.6,62,0.00,,---,0.02,VWS V13.01,2013-04-07 20:01:00,
2013-04-07 16:06:00,90.6,76.3,29.92,East,90,4.6,4.6,63,0.00,,---,0.02,VWS V13.01,2013-04-07 20:06:00,
2013-04-07 16:11:00,90.1,75.8,29.92,ENE,68,7.3,7.3,63,0.00,,---,0.02,VWS V13.01,2013-04-07 20:11:00,
2013-04-07 16:16:00,89.7,75.4,29.92,East,90,3.5,3.5,63,0.00,,---,0.02,VWS V13.01,2013-04-07 20:16:00,
2013-04-07 16:21:00,89.7,75.9,29.91,NNE,22,6.9,6.9,64,0.00,,---,0.02,VWS V13.01,2013-04-07 20:21:00,
2013-04-07 16:27:00,90.1,76.3,29.92,ESE,112,5.5,5.5,64,0.00,,---,0.02,VWS V13.01,2013-04-07 20:27:00,
2013-04-07 16:32:00,90.3,76.0,29.92,NE,45,7.6,7.6,63,0.00,,---,0.02,VWS V13.01,2013-04-07 20:32:00,
2013-04-07 16:37:00,90.3,76.0,29.92,SE,135,2.2,3.5,63,0.00,,---,0.02,VWS V13.01,2013-04-07 20:37:00,
2013-04-07 16:42:00,90.5,75.2,29.93,SSE,158,2.4,2.4,61,0.00,,---,0.02,VWS V13.01,2013-04-07 20:42:00,
2013-04-07 16:47:00,91.2,72.8,29.92,East,90,5.3,5.3,55,0.00,,---,0.02,VWS V13.01,2013-04-07 20:47:00,
2013-04-07 16:52:00,92.1,72.5,29.93,ESE,112,2.4,2.4,53,0.00,,---,0.02,VWS V13.01,2013-04-07 20:52:00,
2013-04-07 16:57:00,93.0,71.6,29.92,SE,135,3.5,3.5,50,0.00,,---,0.02,VWS V13.01,2013-04-07 20:57:00,
2013-04-07 17:02:00,93.7,71.7,29.93,ENE,68,4.6,4.6,49,0.00,,---,0.02,VWS V13.01,2013-04-07 21:02:00,
2013-04-07 17:07:00,93.9,70.6,29.93,South,180,5.3,5.3,47,0.00,,---,0.02,VWS V13.01,2013-04-07 21:07:00,
2013-04-07 17:12:00,93.9,70.0,29.93,SSE,158,0.0,0.0,46,0.00,,---,0.02,VWS V13.01,2013-04-07 21:12:00,
2013-04-07 17:18:00,93.9,69.3,29.93,SE,135,8.5,8.5,45,0.00,,---,0.02,VWS V13.01,2013-04-07 21:18:00,
2013-04-07 17:22:00,93.7,69.2,29.93,SSE,158,3.5,3.5,45,0.00,,---,0.02,VWS V13.01,2013-04-07 21:22:00,
2013-04-07 17:28:00,93.7,69.2,29.93,SSE,158,6.9,6.9,45,0.00,,---,0.02,VWS V13.01,2013-04-07 21:28:00,
2013-04-07 17:33:00,93.3,68.2,29.93,SE,135,4.0,4.0,44,0.00,,---,0.02,VWS V13.01,2013-04-07 21:33:00,
2013-04-07 17:38:00,93.3,68.8,29.93,SE,135,1.5,1.5,45,0.00,,---,0.02,VWS V13.01,2013-04-07 21:38:00,
2013-04-07 17:43:00,93.3,69.4,29.93,SE,135,0.6,0.6,46,0.00,,---,0.02,VWS V13.01,2013-04-07 21:43:00,
2013-04-07 17:48:00,93.5,72.1,29.93,ESE,112,0.0,0.0,50,0.00,,---,0.02,VWS V13.01,2013-04-07 21:48:00,
2013-04-07 17:53:00,93.3,74.2,29.94,East,90,2.0,2.0,54,0.00,,---,0.02,VWS V13.01,2013-04-07 21:53:00,
2013-04-07 17:58:00,92.8,74.8,29.93,SSE,158,4.2,4.2,56,0.00,,---,0.02,VWS V13.01,2013-04-07 21:58:00,
2013-04-07 18:03:00,92.3,74.9,29.94,SE,135,0.8,0.8,57,0.00,,---,0.02,VWS V13.01,2013-04-07 22:03:00,
2013-04-07 18:08:00,91.7,74.8,29.94,SE,135,1.5,1.5,58,0.00,,---,0.02,VWS V13.01,2013-04-07 22:08:00,
2013-04-07 18:13:00,91.2,74.9,29.94,ESE,112,3.1,3.1,59,0.00,,---,0.02,VWS V13.01,2013-04-07 22:13:00,
2013-04-07 18:18:00,90.3,74.0,29.94,ENE,68,2.2,2.2,59,0.00,,---,0.02,VWS V13.01,2013-04-07 22:18:00,
2013-04-07 18:23:00,89.9,74.2,29.94,SSE,158,0.0,0.0,60,0.00,,---,0.02,VWS V13.01,2013-04-07 22:23:00,
2013-04-07 18:28:00,89.4,74.2,29.94,SSE,158,3.3,3.3,61,0.00,,---,0.02,VWS V13.01,2013-04-07 22:28:00,
2013-04-07 18:33:00,88.7,73.5,29.94,SE,135,0.0,0.0,61,0.00,,---,0.02,VWS V13.01,2013-04-07 22:33:00,
2013-04-07 18:38:00,88.1,73.0,29.95,SSE,158,0.0,0.0,61,0.00,,---,0.02,VWS V13.01,2013-04-07 22:38:00,
2013-04-07 18:43:00,87.6,72.5,29.94,SE,135,1.7,1.7,61,0.00,,---,0.02,VWS V13.01,2013-04-07 22:43:00,
2013-04-07 18:48:00,87.0,72.4,29.94,SSW,202,0.0,3.3,62,0.00,,---,0.02,VWS V13.01,2013-04-07 22:48:00,
2013-04-07 18:53:00,86.9,72.8,29.94,SSE,158,0.0,2.4,63,0.00,,---,0.02,VWS V13.01,2013-04-07 22:53:00,
2013-04-07 18:58:00,86.5,72.4,29.95,ESE,112,1.1,1.1,63,0.00,,---,0.02,VWS V13.01,2013-04-07 22:58:00,
2013-04-07 19:03:00,86.3,72.7,29.95,SSE,158,1.3,1.3,64,0.00,,---,0.02,VWS V13.01,2013-04-07 23:03:00,
2013-04-07 19:08:00,85.8,72.7,29.95,ESE,112,1.7,3.3,65,0.00,,---,0.02,VWS V13.01,2013-04-07 23:08:00,
2013-04-07 19:13:00,85.6,72.9,29.95,SE,135,6.9,6.9,66,0.00,,---,0.02,VWS V13.01,2013-04-07 23:13:00,
2013-04-07 19:18:00,85.2,72.6,29.95,SSW,202,4.4,4.4,66,0.00,,---,0.02,VWS V13.01,2013-04-07 23:18:00,
2013-04-07 19:23:00,85.2,73.0,29.95,SSE,158,1.7,1.7,67,0.00,,---,0.02,VWS V13.01,2013-04-07 23:23:00,
2013-04-07 19:28:00,85.1,72.9,29.95,SE,135,0.0,0.8,67,0.00,,---,0.02,VWS V13.01,2013-04-07 23:28:00,
2013-04-07 19:33:00,84.9,72.7,29.96,SE,135,1.1,1.1,67,0.00,,---,0.02,VWS V13.01,2013-04-07 23:33:00,
2013-04-07 19:38:00,84.7,73.0,29.96,ESE,112,3.1,3.1,68,0.00,,---,0.02,VWS V13.01,2013-04-07 23:38:00,
2013-04-07 19:43:00,84.7,73.0,29.96,ENE,68,4.0,4.0,68,0.00,,---,0.02,VWS V13.01,2013-04-07 23:43:00,
2013-04-07 19:48:00,84.5,72.8,29.96,South,180,5.1,5.1,68,0.00,,---,0.02,VWS V13.01,2013-04-07 23:48:00,
2013-04-07 19:53:00,84.3,73.0,29.97,ESE,112,0.0,4.6,69,0.00,,---,0.02,VWS V13.01,2013-04-07 23:53:00,
2013-04-07 19:58:00,84.2,72.9,29.97,SE,135,4.4,4.4,69,0.00,,---,0.02,VWS V13.01,2013-04-07 23:58:00,
2013-04-07 20:03:00,84.0,72.7,29.97,ESE,112,4.6,4.6,69,0.00,,---,0.02,VWS V13.01,2013-04-08 00:03:00,
2013-04-07 20:08:00,83.8,73.0,29.97,SSE,158,4.0,4.0,70,0.00,,---,0.02,VWS V13.01,2013-04-08 00:08:00,
2013-04-07 20:13:00,83.8,73.0,29.98,SE,135,2.4,2.4,70,0.00,,---,0.02,VWS V13.01,2013-04-08 00:13:00,
2013-04-07 20:18:00,83.8,73.0,29.98,SE,135,2.4,2.4,70,0.00,,---,0.02,VWS V13.01,2013-04-08 00:18:00,
2013-04-07 20:23:00,83.6,73.2,29.98,SE,135,6.4,6.4,71,0.00,,---,0.02,VWS V13.01,2013-04-08 00:23:00,
2013-04-07 20:28:00,83.4,73.0,29.98,SE,135,3.5,3.5,71,0.00,,---,0.02,VWS V13.01,2013-04-08 00:28:00,
2013-04-07 20:33:00,83.3,72.9,29.98,SSE,158,6.2,6.2,71,0.00,,---,0.02,VWS V13.01,2013-04-08 00:33:00,
2013-04-07 20:38:00,83.1,73.1,29.98,SE,135,5.8,5.8,72,0.00,,---,0.02,VWS V13.01,2013-04-08 00:38:00,
2013-04-07 20:43:00,83.1,73.1,29.98,SE,135,1.7,1.7,72,0.00,,---,0.02,VWS V13.01,2013-04-08 00:43:00,
2013-04-07 20:48:00,82.9,72.9,29.99,SE,135,2.2,2.2,72,0.00,,---,0.02,VWS V13.01,2013-04-08 00:48:00,
2013-04-07 20:53:00,82.9,72.9,29.99,SSE,158,0.0,0.0,72,0.00,,---,0.02,VWS V13.01,2013-04-08 00:53:00,
2013-04-07 20:58:00,82.9,72.9,29.99,ESE,112,6.2,6.2,72,0.00,,---,0.02,VWS V13.01,2013-04-08 00:58:00,
2013-04-07 21:03:00,82.9,73.4,29.99,SSE,158,4.0,4.0,73,0.00,,---,0.02,VWS V13.01,2013-04-08 01:03:00,
2013-04-07 21:08:00,82.9,73.4,29.99,SE,135,3.8,3.8,73,0.00,,---,0.02,VWS V13.01,2013-04-08 01:08:00,
2013-04-07 21:13:00,82.7,73.2,29.99,SE,135,3.5,3.5,73,0.00,,---,0.02,VWS V13.01,2013-04-08 01:13:00,
2013-04-07 21:18:00,82.7,73.2,30.00,ESE,112,0.0,0.0,73,0.00,,---,0.02,VWS V13.01,2013-04-08 01:18:00,
2013-04-07 21:23:00,82.5,73.0,30.00,SE,135,0.0,0.0,73,0.00,,---,0.02,VWS V13.01,2013-04-08 01:23:00,
2013-04-07 21:28:00,82.5,73.0,30.00,ESE,112,2.0,2.0,73,0.00,,---,0.02,VWS V13.01,2013-04-08 01:28:00,
2013-04-07 21:33:00,82.5,73.4,30.00,ESE,112,4.2,4.2,74,0.00,,---,0.02,VWS V13.01,2013-04-08 01:33:00,
2013-04-07 21:38:00,82.4,73.3,30.00,SE,135,4.0,4.0,74,0.00,,---,0.02,VWS V13.01,2013-04-08 01:38:00,
2013-04-07 21:43:00,82.2,73.1,30.01,East,90,2.0,2.0,74,0.00,,---,0.02,VWS V13.01,2013-04-08 01:43:00,
2013-04-07 21:48:00,82.2,73.1,30.00,SE,135,2.4,2.4,74,0.00,,---,0.02,VWS V13.01,2013-04-08 01:48:00,
2013-04-07 21:53:00,82.2,73.5,30.00,SE,135,2.2,2.2,75,0.00,,---,0.02,VWS V13.01,2013-04-08 01:53:00,
2013-04-07 21:58:00,82.2,73.5,30.00,SSE,158,0.8,0.8,75,0.00,,---,0.02,VWS V13.01,2013-04-08 01:58:00,
2013-04-07 22:03:00,82.2,73.1,30.00,South,180,1.3,1.3,74,0.00,,---,0.02,VWS V13.01,2013-04-08 02:03:00,
2013-04-07 22:08:00,82.2,73.1,30.00,East,90,9.8,9.8,74,0.00,,---,0.02,VWS V13.01,2013-04-08 02:08:00,
2013-04-07 22:13:00,82.2,73.1,30.01,ESE,112,0.0,0.0,74,0.00,,---,0.02,VWS V13.01,2013-04-08 02:13:00,
2013-04-07 22:18:00,82.2,73.1,30.01,SE,135,0.0,0.0,74,0.00,,---,0.02,VWS V13.01,2013-04-08 02:18:00,
2013-04-07 22:23:00,82.2,73.1,30.01,SE,135,0.0,0.0,74,0.00,,---,0.02,VWS V13.01,2013-04-08 02:23:00,
2013-04-07 22:28:00,82.0,72.9,30.01,ENE,68,3.5,3.5,74,0.00,,---,0.02,VWS V13.01,2013-04-08 02:28:00,
2013-04-07 22:33:00,82.0,72.9,30.01,NE,45,2.0,2.0,74,0.00,,---,0.02,VWS V13.01,2013-04-08 02:33:00,
2013-04-07 22:38:00,82.0,72.9,30.01,SSE,158,0.0,4.0,74,0.00,,---,0.02,VWS V13.01,2013-04-08 02:38:00,
2013-04-07 22:43:00,82.0,72.9,30.01,SE,135,3.5,3.5,74,0.00,,---,0.02,VWS V13.01,2013-04-08 02:43:00,
2013-04-07 22:48:00,82.0,73.3,30.01,SE,135,0.0,2.2,75,0.00,,---,0.02,VWS V13.01,2013-04-08 02:48:00,
2013-04-07 22:53:00,81.8,73.1,30.01,SE,135,1.5,1.5,75,0.00,,---,0.02,VWS V13.01,2013-04-08 02:53:00,
2013-04-07 22:58:00,81.8,73.1,30.01,SSE,158,1.1,4.4,75,0.00,,---,0.02,VWS V13.01,2013-04-08 02:58:00,
2013-04-07 23:03:00,81.6,72.9,30.01,SSE,158,4.0,4.0,75,0.00,,---,0.02,VWS V13.01,2013-04-08 03:03:00,
2013-04-07 23:08:00,81.5,72.8,30.01,SE,135,0.0,0.0,75,0.00,,---,0.02,VWS V13.01,2013-04-08 03:08:00,
2013-04-07 23:13:00,81.5,73.2,30.01,SE,135,0.0,0.0,76,0.00,,---,0.02,VWS V13.01,2013-04-08 03:13:00,
2013-04-07 23:18:00,81.5,73.2,30.02,ESE,112,2.0,2.0,76,0.00,,---,0.02,VWS V13.01,2013-04-08 03:18:00,
2013-04-07 23:23:00,81.6,73.3,30.01,SSE,158,0.0,0.0,76,0.00,,---,0.02,VWS V13.01,2013-04-08 03:23:00,
2013-04-07 23:28:00,81.6,73.3,30.01,SE,135,0.0,0.0,76,0.00,,---,0.02,VWS V13.01,2013-04-08 03:28:00,
2013-04-07 23:33:00,81.6,73.3,30.01,ESE,112,4.2,4.2,76,0.00,,---,0.02,VWS V13.01,2013-04-08 03:33:00,
2013-04-07 23:38:00,81.5,73.2,30.00,ENE,68,0.0,0.0,76,0.00,,---,0.02,VWS V13.01,2013-04-08 03:38:00,
2013-04-07 23:43:00,81.5,73.2,30.00,South,180,0.0,0.0,76,0.00,,---,0.02,VWS V13.01,2013-04-08 03:43:00,
2013-04-07 23:49:00,81.6,73.3,30.00,ESE,112,0.0,0.0,76,0.00,,---,0.02,VWS V13.01,2013-04-08 03:49:00,
2013-04-07 23:54:00,81.5,73.2,30.00,ENE,68,2.2,2.2,76,0.00,,---,0.02,VWS V13.01,2013-04-08 03:54:00,
2013-04-07 23:59:00,81.5,73.2,30.00,SE,135,0.0,0.0,76,0.00,,---,0.02,VWS V13.01,2013-04-08 03:59:00,